Location: Chanteloup
(48.8560°N, 2.7390°E)
Time: 22:52:09
(UTC+00:00)

Cosmos 2322 Rocket - Pass Details

Date: 31 May 2022
Orbit: 833 x 851 km, 71.0° (Epoch: 06 July)

Event Time Altitude Azimuth Distance (km) Brightness Sun altitude
Rises 20:58:20 0° 194° (SSW) 3,367 5.0 -9.8°
Reaches altitude 10° 21:00:47 10° 191° (S) 2,436 4.2 -10.1°
Maximum altitude 21:06:16 60° 112° (ESE) 951 2.2 -10.6°
Drops below altitude 10° 21:11:47 10° 34° (NE) 2,453 4.9 -11.2°
Sets 21:14:15 0° 31° (NNE) 3,392 5.7 -11.4°
